When you browse on this site, cookies collect data to enhance your experience and personalize the content and advertising you see.
Visit our Privacy Policy to learn more. By continuing to use the site, you agree to this use of cookies and data.
  • In Lithuania
  • List of Countries
  • For 7 days
  • Water Temperature
  • Satellite Maps
  • Weather Map
  • Weather Widgets
  • user-avatar
    Login

    Hourly Weather San Luis

    Today, 22 May, Wednesday

    Time Temperature Precipitation Wind Pressure Humidity
    00:00 +5°C° 0.1 mm 3 mps 706 mmHg 85%
    01:00 +5°C° 0.1 mm 3 mps 706 mmHg 85%
    02:00 +5°C° 0 mm 3 mps 706 mmHg 81%
    03:00 +4°C° 0 mm 3 mps 706 mmHg 82%
    04:00 +4°C° 0 mm 3 mps 705 mmHg 83%
    05:00 +4°C° 0 mm 3 mps 705 mmHg 84%
    06:00 +5°C° 0 mm 2 mps 705 mmHg 84%
    07:00 +5°C° 0 mm 2 mps 705 mmHg 83%
    08:00 +5°C° 0 mm 2 mps 706 mmHg 83%
    09:00 +6°C° 0 mm 2 mps 706 mmHg 76%
    10:00 +7°C° 0 mm 2 mps 706 mmHg 70%
    11:00 +8°C° 0 mm 2 mps 706 mmHg 64%
    12:00 +9°C° 0 mm 2 mps 706 mmHg 61%
    13:00 +10°C° 0 mm 2 mps 705 mmHg 58%
    14:00 +10°C° 0 mm 2 mps 705 mmHg 54%
    15:00 +10°C° 0 mm 2 mps 704 mmHg 55%
    16:00 +11°C° 0 mm 1 mps 704 mmHg 57%
    17:00 +11°C° 0 mm 1 mps 703 mmHg 58%
    18:00 +9°C° 0 mm 1 mps 703 mmHg 65%
    19:00 +6°C° 0 mm 0 mps 703 mmHg 72%
    20:00 +5°C° 0 mm 0 mps 703 mmHg 79%
    21:00 +6°C° 0 mm 1 mps 703 mmHg 77%
    22:00 +5°C° 0 mm 2 mps 703 mmHg 75%
    23:00 +6°C° 0 mm 2 mps 703 mmHg 72%

    Tomorrow, 23 May, Thursday

    Time Temperature Precipitation Wind Pressure Humidity
    00:00 +5°C° 0 mm 3 mps 703 mmHg 71%
    01:00 +5°C° 0 mm 3 mps 703 mmHg 69%
    02:00 +5°C° 0 mm 4 mps 703 mmHg 68%
    03:00 +5°C° 0 mm 4 mps 702 mmHg 64%
    04:00 +5°C° 0 mm 4 mps 702 mmHg 60%
    05:00 +5°C° 0 mm 4 mps 702 mmHg 56%
    06:00 +5°C° 0 mm 4 mps 702 mmHg 52%
    07:00 +5°C° 0 mm 4 mps 702 mmHg 48%
    08:00 +6°C° 0 mm 4 mps 702 mmHg 44%
    09:00 +9°C° 0 mm 5 mps 703 mmHg 36%
    10:00 +12°C° 0 mm 5 mps 703 mmHg 29%
    11:00 +15°C° 0 mm 5 mps 703 mmHg 21%
    12:00 +16°C° 0 mm 5 mps 703 mmHg 20%
    13:00 +17°C° 0 mm 5 mps 702 mmHg 19%
    14:00 +19°C° 0 mm 5 mps 701 mmHg 18%
    15:00 +18°C° 0 mm 4 mps 701 mmHg 21%
    16:00 +17°C° 0 mm 4 mps 700 mmHg 24%
    17:00 +16°C° 0 mm 3 mps 700 mmHg 27%
    18:00 +13°C° 0 mm 3 mps 700 mmHg 29%
    19:00 +12°C° 0 mm 3 mps 700 mmHg 30%
    20:00 +11°C° 0 mm 3 mps 699 mmHg 32%
    21:00 +11°C° 0 mm 4 mps 699 mmHg 31%
    22:00 +11°C° 0 mm 4 mps 699 mmHg 30%
    23:00 +11°C° 0 mm 4 mps 699 mmHg 28%

    Day after tomorrow, 24 May, Friday

    Time Temperature Precipitation Wind Pressure Humidity
    00:00 +11°C° 0 mm 4 mps 699 mmHg 27%
    01:00 +11°C° 0 mm 4 mps 699 mmHg 25%
    02:00 +10°C° 0 mm 5 mps 699 mmHg 24%
    03:00 +10°C° 0 mm 5 mps 698 mmHg 23%
    04:00 +11°C° 0 mm 4 mps 698 mmHg 22%
    05:00 +11°C° 0 mm 4 mps 698 mmHg 22%
    06:00 +11°C° 0 mm 4 mps 698 mmHg 22%
    07:00 +11°C° 0 mm 4 mps 698 mmHg 23%
    08:00 +12°C° 0 mm 4 mps 698 mmHg 23%
    09:00 +14°C° 0 mm 4 mps 699 mmHg 20%
    10:00 +17°C° 0 mm 5 mps 699 mmHg 17%
    11:00 +21°C° 0 mm 5 mps 699 mmHg 14%
    12:00 +22°C° 0 mm 5 mps 698 mmHg 13%
    13:00 +23°C° 0 mm 5 mps 698 mmHg 13%
    14:00 +25°C° 0 mm 5 mps 697 mmHg 12%
    15:00 +22°C° 0 mm 5 mps 696 mmHg 15%
    16:00 +20°C° 0 mm 4 mps 695 mmHg 17%
    17:00 +19°C° 0 mm 4 mps 695 mmHg 20%
    18:00 +17°C° 0 mm 4 mps 695 mmHg 23%
    19:00 +15°C° 0 mm 4 mps 694 mmHg 25%
    20:00 +13°C° 0 mm 4 mps 694 mmHg 27%
    21:00 +14°C° 0 mm 5 mps 695 mmHg 28%
    22:00 +14°C° 0 mm 6 mps 695 mmHg 29%
    23:00 +14°C° 0 mm 7 mps 695 mmHg 30%

    25 May, Saturday

    Time Temperature Precipitation Wind Pressure Humidity
    00:00 +14°C° 0 mm 7 mps 694 mmHg 33%
    01:00 +14°C° 0 mm 7 mps 694 mmHg 36%
    02:00 +14°C° 0 mm 7 mps 694 mmHg 39%
    03:00 +14°C° 0 mm 7 mps 693 mmHg 40%
    04:00 +12°C° 0 mm 7 mps 693 mmHg 41%
    05:00 +13°C° 0 mm 6 mps 693 mmHg 42%
    06:00 +13°C° 0 mm 6 mps 693 mmHg 43%
    07:00 +13°C° 0 mm 5 mps 693 mmHg 43%
    08:00 +13°C° 0 mm 5 mps 694 mmHg 44%
    09:00 +15°C° 0 mm 5 mps 694 mmHg 39%
    10:00 +18°C° 0 mm 4 mps 694 mmHg 34%
    11:00 +20°C° 0 mm 4 mps 694 mmHg 29%
    12:00 +21°C° 0 mm 4 mps 694 mmHg 28%
    13:00 +22°C° 0 mm 4 mps 693 mmHg 26%
    14:00 +22°C° 0 mm 3 mps 693 mmHg 24%
    15:00 +21°C° 0 mm 3 mps 693 mmHg 29%
    16:00 +20°C° 0 mm 2 mps 692 mmHg 33%
    17:00 +18°C° 0 mm 2 mps 692 mmHg 37%
    18:00 +17°C° 0 mm 2 mps 692 mmHg 38%
    19:00 +15°C° 0 mm 2 mps 692 mmHg 40%
    20:00 +14°C° 0 mm 2 mps 693 mmHg 42%
    21:00 +13°C° 0 mm 2 mps 693 mmHg 44%
    22:00 +13°C° 0 mm 2 mps 693 mmHg 46%
    23:00 +13°C° 0 mm 2 mps 693 mmHg 48%

    26 May, Sunday

    Time Temperature Precipitation Wind Pressure Humidity
    00:00 +13°C° 0 mm 2 mps 693 mmHg 51%
    01:00 +13°C° 0 mm 2 mps 693 mmHg 54%
    02:00 +13°C° 0 mm 2 mps 693 mmHg 56%
    03:00 +12°C° 0 mm 2 mps 693 mmHg 60%
    04:00 +12°C° 0 mm 1 mps 693 mmHg 63%
    05:00 +11°C° 0 mm 1 mps 692 mmHg 66%
    06:00 +11°C° 0 mm 1 mps 693 mmHg 66%
    07:00 +12°C° 0 mm 1 mps 693 mmHg 66%
    08:00 +12°C° 0 mm 1 mps 694 mmHg 66%
    09:00 +14°C° 0 mm 1 mps 694 mmHg 58%
    10:00 +16°C° 0 mm 1 mps 695 mmHg 49%
    11:00 +19°C° 0 mm 1 mps 696 mmHg 41%
    12:00 +20°C° 0 mm 1 mps 695 mmHg 39%
    13:00 +21°C° 0 mm 1 mps 695 mmHg 37%
    14:00 +20°C° 0 mm 2 mps 695 mmHg 35%
    15:00 +20°C° 0 mm 2 mps 694 mmHg 38%
    16:00 +19°C° 0 mm 2 mps 694 mmHg 41%
    17:00 +18°C° 0 mm 3 mps 694 mmHg 44%
    18:00 +16°C° 0 mm 2 mps 694 mmHg 50%
    19:00 +14°C° 0 mm 2 mps 694 mmHg 56%
    20:00 +12°C° 0 mm 2 mps 695 mmHg 63%
    21:00 +12°C° 0 mm 2 mps 695 mmHg 64%
    22:00 +12°C° 0 mm 2 mps 695 mmHg 65%
    23:00 +10°C° 0 mm 2 mps 695 mmHg 65%

    27 May, Monday

    Time Temperature Precipitation Wind Pressure Humidity
    00:00 +10°C° 0 mm 2 mps 695 mmHg 68%
    01:00 +10°C° 0 mm 1 mps 695 mmHg 70%
    02:00 +9°C° 0 mm 1 mps 694 mmHg 72%
    03:00 +9°C° 0 mm 1 mps 694 mmHg 72%
    04:00 +9°C° 0 mm 1 mps 694 mmHg 73%
    05:00 +8°C° 0 mm 1 mps 694 mmHg 73%
    06:00 +9°C° 0 mm 1 mps 694 mmHg 68%
    07:00 +10°C° 0 mm 1 mps 695 mmHg 63%
    08:00 +11°C° 0 mm 1 mps 695 mmHg 58%
    09:00 +13°C° 0 mm 1 mps 696 mmHg 50%
    10:00 +15°C° 0 mm 1 mps 697 mmHg 41%
    11:00 +19°C° 0 mm 1 mps 697 mmHg 33%
    12:00 +19°C° 0 mm 1 mps 697 mmHg 31%
    13:00 +20°C° 0 mm 1 mps 696 mmHg 28%
    14:00 +20°C° 0 mm 1 mps 696 mmHg 26%
    15:00 +18°C° 0 mm 2 mps 696 mmHg 30%
    16:00 +17°C° 0 mm 2 mps 696 mmHg 35%
    17:00 +16°C° 0 mm 2 mps 696 mmHg 40%
    18:00 +15°C° 0 mm 2 mps 696 mmHg 48%
    19:00 +13°C° 0 mm 3 mps 697 mmHg 56%
    20:00 +11°C° 0 mm 3 mps 697 mmHg 64%
    21:00 +11°C° 0 mm 3 mps 697 mmHg 65%
    22:00 +11°C° 0 mm 3 mps 698 mmHg 67%
    23:00 +10°C° 0 mm 2 mps 698 mmHg 68%
    Show more